, TX

(GMT )
Port Isabel

Weather History for KPIL - March, 2014

Change the Weather History Date:

Friday, March 14, 2014

  Actual Average Record
Temperature  
Mean Temperature 69 °F -  
Max Temperature 79 °F - - ()
Min Temperature 60 °F - - ()
Cooling Degree Days 4    
Growing Degree Days 19 (Base 50)    
Moisture  
Dew Point 63 °F    
Average Humidity 81    
Maximum Humidity 93    
Minimum Humidity 62    
Precipitation  
Precipitation 0.00 in - - ()
Sea Level Pressure  
Sea Level Pressure 29.99 in    
Wind  
Wind Speed 9 mph (SE)    
Max Wind Speed 20 mph    
Max Gust Speed 24 mph    
Visibility 8 miles    
Events      
T = Trace of Precipitation, MM = Missing Value Source: NWS Daily Summary

Daily Weather History Graph

Daily Weather History Graph

Search for Another Location

Airport or City:

Trip Planner

Search our weather history database for the weather conditions in past years. The results will help you decide how hot, cold, wet, or windy it might be!

Date:

Astronomy

Mar. 14, 2014 Rise Set
Actual Time 7:39 AM CDT 7:37 PM CDT
Civil Twilight 7:16 AM CDT 8:00 PM CDT
Nautical Twilight 6:49 AM CDT 8:27 PM CDT
Astronomical Twilight 6:23 AM CDT 8:54 PM CDT
Moon 6:07 PM CDT (3/14) 6:12 AM CDT (3/14)
Length of Visible Light 12h 44m
Length of Day
11h 58m
Waxing Gibbous, 96% of the Moon is Illuminated
Mar 14
Waxing Gibbous
Mar 16
Full
Mar 23
Last Quarter
Mar 30
New
Apr 7
First Quarter

Hourly Weather History & Observations

Time (CDT) Temp. Dew Point Humidity Pressure Visibility Wind Dir Wind Speed Gust Speed Precip Events Conditions
12:53 AM 61.0 °F 57.0 °F 87% 30.11 in 10.0 mi ESE 5.8 mph - N/A   Clear
1:53 AM 61.0 °F 57.0 °F 87% 30.09 in 10.0 mi SE 6.9 mph - N/A   Clear
2:53 AM 61.0 °F 57.9 °F 90% 30.06 in 9.0 mi SE 6.9 mph - N/A   Clear
3:53 AM 60.1 °F 57.0 °F 90% 30.05 in 9.0 mi SE 5.8 mph - N/A   Clear
4:53 AM 61.0 °F 57.9 °F 90% 30.03 in 8.0 mi SE 5.8 mph - N/A   Partly Cloudy
5:53 AM 61.0 °F 57.9 °F 90% 30.01 in 8.0 mi SE 8.1 mph - N/A   Partly Cloudy
6:53 AM 62.1 °F 59.0 °F 90% 30.01 in 8.0 mi SE 8.1 mph - N/A   Mostly Cloudy
7:53 AM 64.0 °F 60.1 °F 87% 30.01 in 7.0 mi SSE 6.9 mph - N/A   Scattered Clouds
8:53 AM 64.0 °F 60.1 °F 87% 30.03 in 7.0 mi Calm Calm - N/A   Clear
9:53 AM 69.1 °F 63.0 °F 81% 30.05 in 8.0 mi SSE 9.2 mph - N/A   Clear
10:53 AM 73.0 °F 64.0 °F 73% 30.05 in 9.0 mi SSE 12.7 mph 19.6 mph N/A   Partly Cloudy
11:53 AM 75.9 °F 64.0 °F 67% 30.04 in 9.0 mi SSE 19.6 mph 23.0 mph N/A   Mostly Cloudy
12:53 PM 78.1 °F 64.0 °F 62% 30.02 in 9.0 mi SSE 16.1 mph 24.2 mph N/A   Mostly Cloudy
1:53 PM 78.1 °F 64.0 °F 62% 30.00 in 10.0 mi SSE 13.8 mph 21.9 mph N/A   Scattered Clouds
2:42 PM 75.2 °F 64.4 °F 69% 29.98 in 9.0 mi East 17.3 mph - N/A   Overcast
2:53 PM 75.0 °F 64.9 °F 71% 29.98 in 9.0 mi East 17.3 mph - N/A   Overcast
3:53 PM 75.0 °F 66.0 °F 73% 29.94 in 8.0 mi East 19.6 mph 24.2 mph N/A   Scattered Clouds
4:20 PM 75.2 °F 66.2 °F 73% 29.94 in 8.0 mi ESE 18.4 mph - N/A   Mostly Cloudy
4:35 PM 75.2 °F 66.2 °F 73% 29.93 in 8.0 mi ESE 16.1 mph - N/A   Scattered Clouds
4:53 PM 73.9 °F 66.0 °F 76% 29.93 in 8.0 mi ESE 18.4 mph - N/A   Partly Cloudy
5:06 PM 73.4 °F 66.2 °F 78% 29.93 in 8.0 mi ESE 13.8 mph 23.0 mph N/A   Mostly Cloudy
5:53 PM 73.9 °F 66.0 °F 76% 29.92 in 8.0 mi ESE 16.1 mph - N/A   Mostly Cloudy
6:06 PM 73.4 °F 66.2 °F 78% 29.92 in 8.0 mi SE 12.7 mph - N/A   Scattered Clouds
6:53 PM 72.0 °F 66.0 °F 81% 29.92 in 7.0 mi ESE 10.4 mph - N/A   Clear
7:53 PM 70.0 °F 66.0 °F 87% 29.94 in 7.0 mi SE 6.9 mph - N/A   Clear
8:53 PM 68.0 °F 64.9 °F 90% 29.96 in 7.0 mi East 5.8 mph - N/A   Mostly Cloudy
9:53 PM 68.0 °F 64.9 °F 90% 29.96 in 7.0 mi ESE 6.9 mph - N/A   Mostly Cloudy
10:53 PM 66.9 °F 64.9 °F 93% 29.97 in 7.0 mi ESE 4.6 mph - N/A   Mostly Cloudy
11:07 PM 68.0 °F 64.4 °F 88% 29.97 in 7.0 mi East 5.8 mph - N/A   Overcast
11:53 PM 69.1 °F 66.0 °F 90% 29.96 in 6.0 mi SE 9.2 mph - N/A   Overcast